Location: Rowland
(34.5359°N, 79.2929°W)
Time: 16:14:45
(UTC+00:00)

S-56A Canister/Altair - Pass Details

Date: 12 October 2022
Orbit: 638 x 2494 km, 38.9° (Epoch: 06 December)

Event Time Altitude Azimuth Distance (km) Brightness Sun altitude
Exits shadow 08:45:00 74° 236° (SW) 1,505 8.6 -32.6°
Maximum altitude 08:45:29 76° 207° (SSW) 1,469 8.6 -32.5°
Drops below altitude 10° 08:52:43 10° 123° (ESE) 2,912 11.0 -31.0°
Sets 08:54:57 0° 121° (ESE) 3,676 11.6 -30.6°
